• în Republica Moldova
  • Lista ţărilor
  • Pe 7 zile
  • Temperatura apei
  • Hartă satelitară
  • Meteo pe hartă
  • Widget-uri
  • user-avatar
    Intrare

    Meteo pe oră la Kitzbuhel

    Astăzi, 26 Mai, Vineri

    Timp Temperatura Precipitaţii Vânt Presiune Umiditate
    00:00 +8°C° 0 mm 1 m/s 679 mmHg 96%
    01:00 +7°C° 0 mm 1 m/s 679 mmHg 96%
    02:00 +7°C° 0 mm 1 m/s 678 mmHg 95%
    03:00 +7°C° 0 mm 1 m/s 678 mmHg 95%
    04:00 +6°C° 0 mm 1 m/s 678 mmHg 94%
    05:00 +8°C° 0 mm 1 m/s 679 mmHg 89%
    06:00 +11°C° 0 mm 1 m/s 679 mmHg 84%
    07:00 +13°C° 0 mm 1 m/s 680 mmHg 79%
    08:00 +14°C° 0 mm 1 m/s 680 mmHg 72%
    09:00 +16°C° 0 mm 1 m/s 680 mmHg 66%
    10:00 +18°C° 0 mm 1 m/s 680 mmHg 60%
    11:00 +18°C° 0 mm 2 m/s 680 mmHg 58%
    12:00 +19°C° 0 mm 2 m/s 680 mmHg 56%
    13:00 +19°C° 0 mm 2 m/s 680 mmHg 53%
    14:00 +19°C° 0 mm 2 m/s 680 mmHg 55%
    15:00 +19°C° 0 mm 2 m/s 680 mmHg 58%
    16:00 +19°C° 0 mm 2 m/s 680 mmHg 60%
    17:00 +18°C° 0 mm 2 m/s 679 mmHg 68%
    18:00 +16°C° 0 mm 1 m/s 679 mmHg 77%
    19:00 +15°C° 0 mm 1 m/s 679 mmHg 86%
    20:00 +13°C° 0 mm 1 m/s 679 mmHg 89%
    21:00 +11°C° 0 mm 1 m/s 678 mmHg 92%
    22:00 +9°C° 0 mm 1 m/s 678 mmHg 95%
    23:00 +8°C° 0 mm 1 m/s 678 mmHg 93%

    Mâine, 27 Mai, Sâmbătă

    Timp Temperatura Precipitaţii Vânt Presiune Umiditate
    00:00 +8°C° 0 mm 1 m/s 678 mmHg 92%
    01:00 +8°C° 0 mm 1 m/s 678 mmHg 90%
    02:00 +8°C° 0 mm 1 m/s 678 mmHg 88%
    03:00 +7°C° 0 mm 1 m/s 678 mmHg 87%
    04:00 +7°C° 0 mm 1 m/s 678 mmHg 85%
    05:00 +10°C° 0 mm 1 m/s 679 mmHg 79%
    06:00 +12°C° 0 mm 1 m/s 680 mmHg 73%
    07:00 +15°C° 0 mm 1 m/s 680 mmHg 67%
    08:00 +18°C° 0 mm 1 m/s 681 mmHg 62%
    09:00 +19°C° 0 mm 1 m/s 681 mmHg 58%
    10:00 +20°C° 0 mm 2 m/s 681 mmHg 53%
    11:00 +21°C° 0 mm 2 m/s 681 mmHg 53%
    12:00 +21°C° 0 mm 2 m/s 681 mmHg 52%
    13:00 +23°C° 0 mm 2 m/s 682 mmHg 52%
    14:00 +23°C° 0 mm 2 m/s 681 mmHg 55%
    15:00 +23°C° 0 mm 2 m/s 681 mmHg 58%
    16:00 +21°C° 0 mm 2 m/s 681 mmHg 61%
    17:00 +20°C° 0,1 mm 2 m/s 681 mmHg 71%
    18:00 +19°C° 0,1 mm 1 m/s 681 mmHg 80%
    19:00 +18°C° 0,1 mm 1 m/s 680 mmHg 90%
    20:00 +14°C° 0 mm 1 m/s 680 mmHg 92%
    21:00 +12°C° 0 mm 1 m/s 680 mmHg 94%
    22:00 +9°C° 0 mm 1 m/s 680 mmHg 96%
    23:00 +10°C° 0 mm 1 m/s 680 mmHg 96%

    Poimâine, 28 Mai, Duminică

    Timp Temperatura Precipitaţii Vânt Presiune Umiditate
    00:00 +10°C° 0 mm 1 m/s 680 mmHg 95%
    01:00 +10°C° 0 mm 2 m/s 681 mmHg 94%
    02:00 +10°C° 0 mm 2 m/s 680 mmHg 94%
    03:00 +9°C° 0 mm 2 m/s 680 mmHg 94%
    04:00 +9°C° 0 mm 2 m/s 680 mmHg 93%
    05:00 +12°C° 0 mm 1 m/s 681 mmHg 89%
    06:00 +14°C° 0 mm 1 m/s 681 mmHg 84%
    07:00 +16°C° 0 mm 1 m/s 682 mmHg 80%
    08:00 +19°C° 0 mm 1 m/s 682 mmHg 69%
    09:00 +21°C° 0 mm 1 m/s 683 mmHg 59%
    10:00 +22°C° 0 mm 0 m/s 683 mmHg 48%
    11:00 +24°C° 0 mm 1 m/s 683 mmHg 47%
    12:00 +25°C° 0 mm 1 m/s 683 mmHg 46%
    13:00 +25°C° 0 mm 1 m/s 683 mmHg 45%
    14:00 +25°C° 0 mm 1 m/s 682 mmHg 49%
    15:00 +25°C° 0 mm 1 m/s 682 mmHg 52%
    16:00 +25°C° 0 mm 2 m/s 682 mmHg 56%
    17:00 +23°C° 0,1 mm 1 m/s 682 mmHg 66%
    18:00 +21°C° 0,1 mm 1 m/s 681 mmHg 76%
    19:00 +19°C° 0,1 mm 1 m/s 681 mmHg 86%
    20:00 +16°C° 0 mm 1 m/s 681 mmHg 88%
    21:00 +14°C° 0 mm 1 m/s 680 mmHg 90%
    22:00 +12°C° 0 mm 1 m/s 680 mmHg 93%
    23:00 +12°C° 0 mm 1 m/s 680 mmHg 92%

    29 Mai, Luni

    Timp Temperatura Precipitaţii Vânt Presiune Umiditate
    00:00 +12°C° 0 mm 1 m/s 680 mmHg 92%
    01:00 +12°C° 0 mm 2 m/s 680 mmHg 92%
    02:00 +12°C° 0 mm 2 m/s 680 mmHg 92%
    03:00 +12°C° 0 mm 2 m/s 679 mmHg 92%
    04:00 +12°C° 0 mm 2 m/s 679 mmHg 91%
    05:00 +14°C° 0 mm 1 m/s 680 mmHg 86%
    06:00 +16°C° 0 mm 1 m/s 680 mmHg 81%
    07:00 +19°C° 0 mm 1 m/s 680 mmHg 76%
    08:00 +21°C° 0 mm 1 m/s 681 mmHg 67%
    09:00 +21°C° 0 mm 0 m/s 681 mmHg 58%
    10:00 +23°C° 0 mm 0 m/s 681 mmHg 50%
    11:00 +23°C° 0 mm 0 m/s 681 mmHg 48%
    12:00 +26°C° 0 mm 1 m/s 681 mmHg 47%
    13:00 +26°C° 0 mm 1 m/s 681 mmHg 46%
    14:00 +26°C° 0,1 mm 1 m/s 680 mmHg 50%
    15:00 +26°C° 0,1 mm 1 m/s 680 mmHg 54%
    16:00 +25°C° 0,1 mm 1 m/s 680 mmHg 57%
    17:00 +24°C° 0,3 mm 1 m/s 679 mmHg 67%
    18:00 +22°C° 0,3 mm 1 m/s 679 mmHg 77%
    19:00 +20°C° 0,3 mm 1 m/s 679 mmHg 87%
    20:00 +18°C° 0,1 mm 1 m/s 678 mmHg 89%
    21:00 +15°C° 0,1 mm 1 m/s 678 mmHg 92%
    22:00 +12°C° 0,1 mm 1 m/s 677 mmHg 94%
    23:00 +12°C° 0 mm 1 m/s 677 mmHg 93%

    30 Mai, Marţi

    Timp Temperatura Precipitaţii Vânt Presiune Umiditate
    00:00 +12°C° 0 mm 1 m/s 677 mmHg 93%
    01:00 +12°C° 0 mm 1 m/s 677 mmHg 92%
    02:00 +12°C° 0 mm 1 m/s 677 mmHg 92%
    03:00 +12°C° 0 mm 1 m/s 677 mmHg 92%
    04:00 +12°C° 0 mm 1 m/s 677 mmHg 91%
    05:00 +14°C° 0 mm 1 m/s 678 mmHg 87%
    06:00 +16°C° 0 mm 1 m/s 678 mmHg 84%
    07:00 +20°C° 0 mm 1 m/s 679 mmHg 80%
    08:00 +21°C° 0 mm 1 m/s 679 mmHg 72%
    09:00 +23°C° 0 mm 1 m/s 680 mmHg 65%
    10:00 +25°C° 0 mm 1 m/s 680 mmHg 58%
    11:00 +25°C° 0,2 mm 1 m/s 680 mmHg 58%
    12:00 +25°C° 0,2 mm 1 m/s 680 mmHg 58%
    13:00 +26°C° 0,2 mm 1 m/s 680 mmHg 58%
    14:00 +25°C° 1,1 mm 1 m/s 680 mmHg 64%
    15:00 +24°C° 1,1 mm 1 m/s 680 mmHg 70%
    16:00 +24°C° 1,1 mm 1 m/s 679 mmHg 76%
    17:00 +22°C° 1,2 mm 1 m/s 679 mmHg 81%
    18:00 +21°C° 1,2 mm 1 m/s 679 mmHg 87%
    19:00 +20°C° 1,2 mm 1 m/s 679 mmHg 92%
    20:00 +19°C° 0,6 mm 1 m/s 679 mmHg 93%
    21:00 +18°C° 0,6 mm 1 m/s 679 mmHg 94%
    22:00 +16°C° 0,6 mm 1 m/s 679 mmHg 96%
    23:00 +16°C° 0,4 mm 1 m/s 679 mmHg 95%

    31 Mai, Miercuri

    Timp Temperatura Precipitaţii Vânt Presiune Umiditate
    00:00 +15°C° 0,4 mm 1 m/s 679 mmHg 95%
    01:00 +15°C° 0,4 mm 1 m/s 679 mmHg 95%
    02:00 +15°C° 0,1 mm 1 m/s 679 mmHg 95%
    03:00 +14°C° 0,1 mm 1 m/s 679 mmHg 96%
    04:00 +14°C° 0,1 mm 1 m/s 679 mmHg 96%
    05:00 +15°C° 0 mm 1 m/s 679 mmHg 95%
    06:00 +16°C° 0 mm 1 m/s 680 mmHg 93%
    07:00 +18°C° 0 mm 1 m/s 680 mmHg 92%
    08:00 +19°C° 0,2 mm 1 m/s 680 mmHg 88%
    09:00 +20°C° 0,2 mm 1 m/s 681 mmHg 84%
    10:00 +21°C° 0,2 mm 1 m/s 681 mmHg 80%
    11:00 +22°C° 0,9 mm 1 m/s 681 mmHg 80%
    12:00 +22°C° 0,9 mm 1 m/s 681 mmHg 79%
    13:00 +23°C° 0,9 mm 1 m/s 681 mmHg 78%
    14:00 +22°C° 1 mm 1 m/s 680 mmHg 79%
    15:00 +22°C° 1 mm 1 m/s 680 mmHg 80%
    16:00 +22°C° 1 mm 1 m/s 680 mmHg 81%
    17:00 +21°C° 0,8 mm 1 m/s 680 mmHg 85%
    18:00 +20°C° 0,8 mm 1 m/s 680 mmHg 89%
    19:00 +19°C° 0,8 mm 1 m/s 679 mmHg 93%
    20:00 +18°C° 1 mm 1 m/s 679 mmHg 95%
    21:00 +16°C° 1 mm 1 m/s 679 mmHg 96%
    22:00 +14°C° 1 mm 1 m/s 679 mmHg 97%
    23:00 +14°C° 0,7 mm 1 m/s 679 mmHg 97%
    Arată mai mult